Year,Month,Day,Hour,Minute,Value (Times are PST for temperature in C)
2020,03,29,00,00,7.90
2020,03,29,00,01,7.90
2020,03,29,00,02,7.90
2020,03,29,00,03,7.90
2020,03,29,00,04,7.80
2020,03,29,00,05,7.80
2020,03,29,00,06,7.80
2020,03,29,00,07,7.80
2020,03,29,00,08,7.80
2020,03,29,00,09,7.80
2020,03,29,00,10,7.70
2020,03,29,00,11,7.70
2020,03,29,00,12,7.70
2020,03,29,00,13,7.70
2020,03,29,00,14,7.70
2020,03,29,00,15,7.70
2020,03,29,00,16,7.70
2020,03,29,00,17,7.70
2020,03,29,00,18,7.60
2020,03,29,00,19,7.60
2020,03,29,00,20,7.60
2020,03,29,00,21,7.60
2020,03,29,00,22,7.60
2020,03,29,00,23,7.60
2020,03,29,00,24,7.60
2020,03,29,00,25,7.60
2020,03,29,00,26,7.60
2020,03,29,00,27,7.50
2020,03,29,00,28,7.50
2020,03,29,00,29,7.50
2020,03,29,00,30,7.50
2020,03,29,00,31,7.50
2020,03,29,00,32,7.50
2020,03,29,00,33,7.50
2020,03,29,00,34,7.50
2020,03,29,00,35,7.50
2020,03,29,00,36,7.50
2020,03,29,00,37,7.50
2020,03,29,00,38,7.50
2020,03,29,00,39,7.50
2020,03,29,00,40,7.50
2020,03,29,00,41,7.50
2020,03,29,00,42,7.50
2020,03,29,00,43,7.60
2020,03,29,00,44,7.60
2020,03,29,00,45,7.60
2020,03,29,00,46,7.60
2020,03,29,00,47,7.60
2020,03,29,00,48,7.60
2020,03,29,00,49,7.60
2020,03,29,00,50,7.60
2020,03,29,00,51,7.60
2020,03,29,00,52,7.60
2020,03,29,00,53,7.60
2020,03,29,00,54,7.60
2020,03,29,00,55,7.60
2020,03,29,00,56,7.60
2020,03,29,00,57,7.60
2020,03,29,00,58,7.60
2020,03,29,00,59,7.60
2020,03,29,01,00,7.60
2020,03,29,01,01,7.60
2020,03,29,01,02,7.50
2020,03,29,01,03,7.50
2020,03,29,01,04,7.50
2020,03,29,01,05,7.50
2020,03,29,01,06,7.50
2020,03,29,01,07,7.40
2020,03,29,01,08,7.40
2020,03,29,01,09,7.40
2020,03,29,01,10,7.40
2020,03,29,01,11,7.30
2020,03,29,01,12,7.30
2020,03,29,01,13,7.30
2020,03,29,01,14,7.20
2020,03,29,01,15,7.20
2020,03,29,01,16,7.20
2020,03,29,01,17,7.20
2020,03,29,01,18,7.20
2020,03,29,01,19,7.20
2020,03,29,01,20,7.20
2020,03,29,01,21,7.20
2020,03,29,01,22,7.20
2020,03,29,01,23,7.20
2020,03,29,01,24,7.10
2020,03,29,01,25,7.10
2020,03,29,01,26,7.10
2020,03,29,01,27,7.10
2020,03,29,01,28,7.20
2020,03,29,01,29,7.20
2020,03,29,01,30,7.20
2020,03,29,01,31,7.20
2020,03,29,01,32,7.20
2020,03,29,01,33,7.20
2020,03,29,01,34,7.20
2020,03,29,01,35,7.20
2020,03,29,01,36,7.20
2020,03,29,01,37,7.30
2020,03,29,01,38,7.30
2020,03,29,01,39,7.30
2020,03,29,01,40,7.30
2020,03,29,01,41,7.30
2020,03,29,01,42,7.30
2020,03,29,01,43,7.30
2020,03,29,01,44,7.30
2020,03,29,01,45,7.30
2020,03,29,01,46,7.30
2020,03,29,01,47,7.30
2020,03,29,01,48,7.20
2020,03,29,01,49,7.20
2020,03,29,01,50,7.20
2020,03,29,01,51,7.10
2020,03,29,01,52,7.10
2020,03,29,01,53,7.00
2020,03,29,01,54,7.00
2020,03,29,01,55,7.00
2020,03,29,01,56,6.90
2020,03,29,01,57,6.90
2020,03,29,01,58,6.90
2020,03,29,01,59,6.90
2020,03,29,02,00,6.80
2020,03,29,02,01,6.80
2020,03,29,02,02,6.80
2020,03,29,02,03,6.80
2020,03,29,02,04,6.70
2020,03,29,02,05,6.70
2020,03,29,02,06,6.70
2020,03,29,02,07,6.70
2020,03,29,02,08,6.70
2020,03,29,02,09,6.70
2020,03,29,02,10,6.70
2020,03,29,02,11,6.70
2020,03,29,02,12,6.60
2020,03,29,02,13,6.60
2020,03,29,02,14,6.60
2020,03,29,02,15,6.60
2020,03,29,02,16,6.60
2020,03,29,02,17,6.60
2020,03,29,02,18,6.60
2020,03,29,02,19,6.60
2020,03,29,02,20,6.60
2020,03,29,02,21,6.60
2020,03,29,02,22,6.60
2020,03,29,02,23,6.60
2020,03,29,02,24,6.60
2020,03,29,02,25,6.60
2020,03,29,02,26,6.50
2020,03,29,02,27,6.50
2020,03,29,02,28,6.50
2020,03,29,02,29,6.50
2020,03,29,02,30,6.40
2020,03,29,02,31,6.40
2020,03,29,02,32,6.40
2020,03,29,02,33,6.40
2020,03,29,02,34,6.30
2020,03,29,02,35,6.30
2020,03,29,02,36,6.30
2020,03,29,02,37,6.20
2020,03,29,02,38,6.20
2020,03,29,02,39,6.10
2020,03,29,02,40,6.10
2020,03,29,02,41,6.10
2020,03,29,02,42,6.00
2020,03,29,02,43,6.00
2020,03,29,02,44,6.00
2020,03,29,02,45,5.90
2020,03,29,02,46,5.90
2020,03,29,02,47,5.80
2020,03,29,02,48,5.80
2020,03,29,02,49,5.80
2020,03,29,02,50,5.80
2020,03,29,02,51,5.70
2020,03,29,02,52,5.70
2020,03,29,02,53,5.70
2020,03,29,02,54,5.60
2020,03,29,02,55,5.60
2020,03,29,02,56,5.60
2020,03,29,02,57,5.60
2020,03,29,02,58,5.60
2020,03,29,02,59,5.50
2020,03,29,03,00,5.40
2020,03,29,03,01,5.40
2020,03,29,03,02,5.40
2020,03,29,03,03,5.40
2020,03,29,03,04,5.40
2020,03,29,03,05,5.30
2020,03,29,03,06,5.30
2020,03,29,03,07,5.30
2020,03,29,03,08,5.30
2020,03,29,03,09,5.30
2020,03,29,03,10,5.30
2020,03,29,03,11,5.30
2020,03,29,03,12,5.20
2020,03,29,03,13,5.20
2020,03,29,03,14,5.20
2020,03,29,03,15,5.20
2020,03,29,03,16,5.20
2020,03,29,03,17,5.20
2020,03,29,03,18,5.10
2020,03,29,03,19,5.10
2020,03,29,03,20,5.10
2020,03,29,03,21,5.10
2020,03,29,03,22,5.10
2020,03,29,03,23,5.00
2020,03,29,03,24,5.00
2020,03,29,03,25,5.00
2020,03,29,03,26,5.00
2020,03,29,03,27,5.00
2020,03,29,03,28,5.00
2020,03,29,03,29,4.90
2020,03,29,03,30,4.90
2020,03,29,03,31,4.90
2020,03,29,03,32,4.90
2020,03,29,03,33,4.90
2020,03,29,03,34,4.90
2020,03,29,03,35,4.80
2020,03,29,03,36,4.80
2020,03,29,03,37,4.80
2020,03,29,03,38,4.80
2020,03,29,03,39,4.80
2020,03,29,03,40,4.80
2020,03,29,03,41,4.80
2020,03,29,03,42,4.70
2020,03,29,03,43,4.70
2020,03,29,03,44,4.70
2020,03,29,03,45,4.70
2020,03,29,03,46,4.70
2020,03,29,03,47,4.60
2020,03,29,03,48,4.60
2020,03,29,03,49,4.60
2020,03,29,03,50,4.60
2020,03,29,03,51,4.60
2020,03,29,03,52,4.60
2020,03,29,03,53,4.50
2020,03,29,03,54,4.50
2020,03,29,03,55,4.50
2020,03,29,03,56,4.40
2020,03,29,03,57,4.30
2020,03,29,03,58,4.30
2020,03,29,03,59,4.30
2020,03,29,04,00,4.20
2020,03,29,04,01,4.20
2020,03,29,04,02,4.10
2020,03,29,04,03,4.10
2020,03,29,04,04,4.00
2020,03,29,04,05,4.00
2020,03,29,04,06,3.90
2020,03,29,04,07,3.90
2020,03,29,04,08,3.90
2020,03,29,04,09,3.90
2020,03,29,04,10,3.90
2020,03,29,04,11,3.90
2020,03,29,04,12,3.90
2020,03,29,04,13,3.90
2020,03,29,04,14,3.90
2020,03,29,04,15,3.90
2020,03,29,04,16,3.90
2020,03,29,04,17,3.90
2020,03,29,04,18,3.80
2020,03,29,04,19,3.80
2020,03,29,04,20,3.90
2020,03,29,04,21,3.80
2020,03,29,04,22,3.80
2020,03,29,04,23,3.80
2020,03,29,04,24,3.80
2020,03,29,04,25,3.80
2020,03,29,04,26,3.80
2020,03,29,04,27,3.80
2020,03,29,04,28,3.80
2020,03,29,04,29,3.80
2020,03,29,04,30,3.80
2020,03,29,04,31,3.80
2020,03,29,04,32,3.80
2020,03,29,04,33,3.80
2020,03,29,04,34,3.80
2020,03,29,04,35,3.80
2020,03,29,04,36,3.90
2020,03,29,04,37,3.90
2020,03,29,04,38,3.90
2020,03,29,04,39,3.90
2020,03,29,04,40,3.90
2020,03,29,04,41,3.90
2020,03,29,04,42,3.90
2020,03,29,04,43,3.90
2020,03,29,04,44,3.90
2020,03,29,04,45,3.90
2020,03,29,04,46,3.90
2020,03,29,04,47,3.90
2020,03,29,04,48,3.90
2020,03,29,04,49,4.00
2020,03,29,04,50,4.00
2020,03,29,04,51,4.00
2020,03,29,04,52,4.00
2020,03,29,04,53,4.00
2020,03,29,04,54,4.00
2020,03,29,04,55,4.00
2020,03,29,04,56,4.10
2020,03,29,04,57,4.10
2020,03,29,04,58,4.10
2020,03,29,04,59,4.10
2020,03,29,05,00,4.10
2020,03,29,05,01,4.10
2020,03,29,05,02,4.10
2020,03,29,05,03,4.10
2020,03,29,05,04,4.10
2020,03,29,05,05,4.10
2020,03,29,05,06,4.10
2020,03,29,05,07,4.10
2020,03,29,05,08,4.10
2020,03,29,05,09,4.10
2020,03,29,05,10,4.10
2020,03,29,05,11,4.10
2020,03,29,05,12,4.10
2020,03,29,05,13,4.10
2020,03,29,05,14,4.10
2020,03,29,05,15,4.10
2020,03,29,05,16,4.10
2020,03,29,05,17,4.10
2020,03,29,05,18,4.10
2020,03,29,05,19,4.10
2020,03,29,05,20,4.10
2020,03,29,05,21,4.10
2020,03,29,05,22,4.10
2020,03,29,05,23,4.10
2020,03,29,05,24,4.10
2020,03,29,05,25,4.10
2020,03,29,05,26,4.10
2020,03,29,05,27,4.10
2020,03,29,05,28,4.10
2020,03,29,05,29,4.00
2020,03,29,05,30,4.00
2020,03,29,05,31,4.00
2020,03,29,05,32,4.00
2020,03,29,05,33,4.00
2020,03,29,05,34,4.00
2020,03,29,05,35,3.90
2020,03,29,05,36,3.90
2020,03,29,05,37,3.90
2020,03,29,05,38,3.90
2020,03,29,05,39,3.90
2020,03,29,05,40,3.90
2020,03,29,05,41,3.80
2020,03,29,05,42,3.80
2020,03,29,05,43,3.80
2020,03,29,05,44,3.80
2020,03,29,05,45,3.80
2020,03,29,05,46,3.80
2020,03,29,05,47,3.70
2020,03,29,05,48,3.70
2020,03,29,05,49,3.70
2020,03,29,05,50,3.70
2020,03,29,05,51,3.70
2020,03,29,05,52,3.70
2020,03,29,05,53,3.70
2020,03,29,05,54,3.60
2020,03,29,05,55,3.60
2020,03,29,05,56,3.60
2020,03,29,05,57,3.60
2020,03,29,05,58,3.60
2020,03,29,05,59,3.50
2020,03,29,06,00,3.50
2020,03,29,06,01,3.50
2020,03,29,06,02,3.50
2020,03,29,06,03,3.40
2020,03,29,06,04,3.40
2020,03,29,06,05,3.40
2020,03,29,06,06,3.40
2020,03,29,06,07,3.40
2020,03,29,06,08,3.40
2020,03,29,06,09,3.40
2020,03,29,06,10,3.30
2020,03,29,06,11,3.30
2020,03,29,06,12,3.30
2020,03,29,06,13,3.30
2020,03,29,06,14,3.30
2020,03,29,06,15,3.30
2020,03,29,06,16,3.30
2020,03,29,06,17,3.20
2020,03,29,06,18,3.20
2020,03,29,06,19,3.20
2020,03,29,06,20,3.20
2020,03,29,06,21,3.10
2020,03,29,06,22,3.10
2020,03,29,06,23,3.00
2020,03,29,06,24,3.00
2020,03,29,06,25,3.00
2020,03,29,06,26,2.90
2020,03,29,06,27,2.90
2020,03,29,06,28,2.90
2020,03,29,06,29,2.90
2020,03,29,06,30,2.90
2020,03,29,06,31,2.90
2020,03,29,06,32,2.90
2020,03,29,06,33,2.80
2020,03,29,06,34,2.80
2020,03,29,06,35,2.80
2020,03,29,06,36,2.80
2020,03,29,06,37,2.80
2020,03,29,06,38,2.80
2020,03,29,06,39,2.80
2020,03,29,06,40,2.70
2020,03,29,06,41,2.70
2020,03,29,06,42,2.70
2020,03,29,06,43,2.70
2020,03,29,06,44,2.70
2020,03,29,06,45,2.80
2020,03,29,06,46,2.80
2020,03,29,06,47,2.80
2020,03,29,06,48,2.80
2020,03,29,06,49,2.80
2020,03,29,06,50,2.80
2020,03,29,06,51,2.80
2020,03,29,06,52,2.80
2020,03,29,06,53,2.80
2020,03,29,06,54,2.80
2020,03,29,06,55,2.80
2020,03,29,06,56,2.80
2020,03,29,06,57,2.80
2020,03,29,06,58,2.80
2020,03,29,06,59,2.80
2020,03,29,07,00,2.80
2020,03,29,07,01,2.70
2020,03,29,07,02,2.70
2020,03,29,07,03,2.70
2020,03,29,07,04,2.70
2020,03,29,07,05,2.70
2020,03,29,07,06,2.70
2020,03,29,07,07,2.60
2020,03,29,07,08,2.60
2020,03,29,07,09,2.60
2020,03,29,07,10,2.60
2020,03,29,07,11,2.50
2020,03,29,07,12,2.50
2020,03,29,07,13,2.50
2020,03,29,07,14,2.40
2020,03,29,07,15,2.40
2020,03,29,07,16,2.40
2020,03,29,07,17,2.30
2020,03,29,07,18,2.30
2020,03,29,07,19,2.30
2020,03,29,07,20,2.20
2020,03,29,07,21,2.20
2020,03,29,07,22,2.10
2020,03,29,07,23,2.10
2020,03,29,07,24,2.10
2020,03,29,07,25,2.10
2020,03,29,07,26,2.10
2020,03,29,07,27,2.10
2020,03,29,07,28,2.10
2020,03,29,07,29,2.10
2020,03,29,07,30,2.20
2020,03,29,07,31,2.20
2020,03,29,07,32,2.20
2020,03,29,07,33,2.20
2020,03,29,07,34,2.20
2020,03,29,07,35,2.20
2020,03,29,07,36,2.20
2020,03,29,07,37,2.20
2020,03,29,07,38,2.20
2020,03,29,07,39,2.20
2020,03,29,07,40,2.20
2020,03,29,07,41,2.20
2020,03,29,07,42,2.20
2020,03,29,07,43,2.20
2020,03,29,07,44,2.20
2020,03,29,07,45,2.20
2020,03,29,07,46,2.20
2020,03,29,07,47,2.30
2020,03,29,07,48,2.30
2020,03,29,07,49,2.30
2020,03,29,07,50,2.30
2020,03,29,07,51,2.30
2020,03,29,07,52,2.30
2020,03,29,07,53,2.30
2020,03,29,07,54,2.30
2020,03,29,07,55,2.40
2020,03,29,07,56,2.40
2020,03,29,07,57,2.40
2020,03,29,07,58,2.50
2020,03,29,07,59,2.60
2020,03,29,08,00,2.60
2020,03,29,08,01,2.70
2020,03,29,08,02,2.80
2020,03,29,08,03,2.80
2020,03,29,08,04,2.90
2020,03,29,08,05,2.90
2020,03,29,08,06,3.00
2020,03,29,08,07,3.00
2020,03,29,08,08,3.10
2020,03,29,08,09,3.10
2020,03,29,08,10,3.20
2020,03,29,08,11,3.20
2020,03,29,08,12,3.20
2020,03,29,08,13,3.30
2020,03,29,08,14,3.30
2020,03,29,08,15,3.40
2020,03,29,08,16,3.40
2020,03,29,08,17,3.50
2020,03,29,08,18,3.50
2020,03,29,08,19,3.60
2020,03,29,08,20,3.70
2020,03,29,08,21,3.80
2020,03,29,08,22,3.90
2020,03,29,08,23,4.00
2020,03,29,08,24,4.10
2020,03,29,08,25,4.10
2020,03,29,08,26,4.20
2020,03,29,08,27,4.30
2020,03,29,08,28,4.40
2020,03,29,08,29,4.50
2020,03,29,08,30,4.60
2020,03,29,08,31,4.70
2020,03,29,08,32,4.80
2020,03,29,08,33,4.90
2020,03,29,08,34,5.00
2020,03,29,08,35,5.10
2020,03,29,08,36,5.20
2020,03,29,08,37,5.40
2020,03,29,08,38,5.50
2020,03,29,08,39,5.60
2020,03,29,08,40,5.70
2020,03,29,08,41,5.80
2020,03,29,08,42,5.90
2020,03,29,08,43,6.10
2020,03,29,08,44,6.20
2020,03,29,08,45,6.30
2020,03,29,08,46,6.40
2020,03,29,08,47,6.50
2020,03,29,08,48,6.60
2020,03,29,08,49,6.70
2020,03,29,08,50,6.80
2020,03,29,08,51,6.90
2020,03,29,08,52,7.00
2020,03,29,08,53,7.10
2020,03,29,08,54,7.20
2020,03,29,08,55,7.20
2020,03,29,08,56,7.30
2020,03,29,08,57,7.30
2020,03,29,08,58,7.40
2020,03,29,08,59,7.40
2020,03,29,09,00,7.40
2020,03,29,09,01,7.50
2020,03,29,09,02,7.50
2020,03,29,09,03,7.50
2020,03,29,09,04,7.50
2020,03,29,09,05,7.60
2020,03,29,09,06,7.60
2020,03,29,09,07,7.70
2020,03,29,09,08,7.70
2020,03,29,09,09,7.70
2020,03,29,09,10,7.70
2020,03,29,09,11,7.70
2020,03,29,09,12,7.70
2020,03,29,09,13,7.70
2020,03,29,09,14,7.80
2020,03,29,09,15,7.80
2020,03,29,09,16,7.80
2020,03,29,09,17,7.80
2020,03,29,09,18,7.80
2020,03,29,09,19,7.80
2020,03,29,09,20,7.90
2020,03,29,09,21,7.90
2020,03,29,09,22,7.80
2020,03,29,09,23,7.80
2020,03,29,09,24,7.80
2020,03,29,09,25,7.80
2020,03,29,09,26,7.90
2020,03,29,09,27,7.90
2020,03,29,09,28,7.90
2020,03,29,09,29,7.90
2020,03,29,09,30,8.00
2020,03,29,09,31,8.00
2020,03,29,09,32,8.10
2020,03,29,09,33,8.10
2020,03,29,09,34,8.10
2020,03,29,09,35,8.20
2020,03,29,09,36,8.20
2020,03,29,09,37,8.30
2020,03,29,09,38,8.30
2020,03,29,09,39,8.30
2020,03,29,09,40,8.30
2020,03,29,09,41,8.40
2020,03,29,09,42,8.40
2020,03,29,09,43,8.40
2020,03,29,09,44,8.50
2020,03,29,09,45,8.60
2020,03,29,09,46,8.70
2020,03,29,09,47,8.70
2020,03,29,09,48,8.80
2020,03,29,09,49,8.90
2020,03,29,09,50,9.00
2020,03,29,09,51,9.10
2020,03,29,09,52,9.10
2020,03,29,09,53,9.20
2020,03,29,09,54,9.20
2020,03,29,09,55,9.20
2020,03,29,09,56,9.20
2020,03,29,09,57,9.20
2020,03,29,09,58,9.20
2020,03,29,09,59,9.20
2020,03,29,10,00,9.10
2020,03,29,10,01,9.00
2020,03,29,10,02,8.90
2020,03,29,10,03,8.90
2020,03,29,10,04,8.80
2020,03,29,10,05,8.80
2020,03,29,10,06,8.80
2020,03,29,10,07,8.80
2020,03,29,10,08,8.80
2020,03,29,10,09,8.80
2020,03,29,10,10,8.90
2020,03,29,10,11,8.90
2020,03,29,10,12,9.00
2020,03,29,10,13,9.10
2020,03,29,10,14,9.20
2020,03,29,10,15,9.10
2020,03,29,10,16,9.10
2020,03,29,10,17,9.10
2020,03,29,10,18,9.10
2020,03,29,10,19,9.10
2020,03,29,10,20,9.20
2020,03,29,10,21,9.20
2020,03,29,10,22,9.20
2020,03,29,10,23,9.20
2020,03,29,10,24,9.20
2020,03,29,10,25,9.20
2020,03,29,10,26,9.20
2020,03,29,10,27,9.30
2020,03,29,10,28,9.30
2020,03,29,10,29,9.40
2020,03,29,10,30,9.40
2020,03,29,10,31,9.40
2020,03,29,10,32,9.50
2020,03,29,10,33,9.60
2020,03,29,10,34,9.60
2020,03,29,10,35,9.70
2020,03,29,10,36,9.80
2020,03,29,10,37,9.80
2020,03,29,10,38,9.80
2020,03,29,10,39,9.80
2020,03,29,10,40,9.80
2020,03,29,10,41,9.80
2020,03,29,10,42,9.90
2020,03,29,10,43,9.90
2020,03,29,10,44,9.90
2020,03,29,10,45,9.90
2020,03,29,10,46,9.90
2020,03,29,10,47,9.90
2020,03,29,10,48,9.80
2020,03,29,10,49,9.70
2020,03,29,10,50,9.60
2020,03,29,10,51,9.50
2020,03,29,10,52,9.40
2020,03,29,10,53,9.30
2020,03,29,10,54,9.30
2020,03,29,10,55,9.20
2020,03,29,10,56,9.20
2020,03,29,10,57,9.20
2020,03,29,10,58,9.20
2020,03,29,10,59,9.20
2020,03,29,11,00,9.20
2020,03,29,11,01,9.20
2020,03,29,11,02,9.20
2020,03,29,11,03,9.20
2020,03,29,11,04,9.10
2020,03,29,11,05,9.20
2020,03,29,11,06,9.20
2020,03,29,11,07,9.20
2020,03,29,11,08,9.20
2020,03,29,11,09,9.20
2020,03,29,11,10,9.10
2020,03,29,11,11,9.10
2020,03,29,11,12,9.10
2020,03,29,11,13,9.20
2020,03,29,11,14,9.20
2020,03,29,11,15,9.10
2020,03,29,11,16,9.10
2020,03,29,11,17,9.10
2020,03,29,11,18,9.10
2020,03,29,11,19,9.20
2020,03,29,11,20,9.20
2020,03,29,11,21,9.30
2020,03,29,11,22,9.40
2020,03,29,11,23,9.50
2020,03,29,11,24,9.50
2020,03,29,11,25,9.50
2020,03,29,11,26,9.50
2020,03,29,11,27,9.60
2020,03,29,11,28,9.60
2020,03,29,11,29,9.60
2020,03,29,11,30,9.60
2020,03,29,11,31,9.50
2020,03,29,11,32,9.40
2020,03,29,11,33,9.30
2020,03,29,11,34,9.30
2020,03,29,11,35,9.20
2020,03,29,11,36,9.10
2020,03,29,11,37,9.00
2020,03,29,11,38,8.90
2020,03,29,11,39,8.80
2020,03,29,11,40,8.80
2020,03,29,11,41,8.80
2020,03,29,11,42,8.70
2020,03,29,11,43,8.80
2020,03,29,11,44,8.70
2020,03,29,11,45,8.70
2020,03,29,11,46,8.70
2020,03,29,11,47,8.60
2020,03,29,11,48,8.60
2020,03,29,11,49,8.60
2020,03,29,11,50,8.60
2020,03,29,11,51,8.60
2020,03,29,11,52,8.50
2020,03,29,11,53,8.50
2020,03,29,11,54,8.50
2020,03,29,11,55,8.50
2020,03,29,11,56,8.50
2020,03,29,11,57,8.50
2020,03,29,11,58,8.60
2020,03,29,11,59,8.60
2020,03,29,12,00,8.60
2020,03,29,12,01,8.70
2020,03,29,12,02,8.70
2020,03,29,12,03,8.80
2020,03,29,12,04,8.80
2020,03,29,12,05,8.80
2020,03,29,12,06,8.90
2020,03,29,12,07,8.90
2020,03,29,12,08,8.90
2020,03,29,12,09,8.90
2020,03,29,12,10,9.00
2020,03,29,12,11,9.00
2020,03,29,12,12,9.10
2020,03,29,12,13,9.20
2020,03,29,12,14,9.20
2020,03,29,12,15,9.30
2020,03,29,12,16,9.40
2020,03,29,12,17,9.50
2020,03,29,12,18,9.60
2020,03,29,12,19,9.70
2020,03,29,12,20,9.70
2020,03,29,12,21,9.70
2020,03,29,12,22,9.80
2020,03,29,12,23,9.80
2020,03,29,12,24,9.90
2020,03,29,12,25,10.00
2020,03,29,12,26,10.00
2020,03,29,12,27,10.10
2020,03,29,12,28,10.20
2020,03,29,12,29,10.20
2020,03,29,12,30,10.30
2020,03,29,12,31,10.40
2020,03,29,12,32,10.60
2020,03,29,12,33,10.90
2020,03,29,12,34,11.20
2020,03,29,12,35,11.50
2020,03,29,12,36,11.90
2020,03,29,12,37,12.10
2020,03,29,12,38,12.30
2020,03,29,12,39,12.40
2020,03,29,12,40,12.50
2020,03,29,12,41,12.60
2020,03,29,12,42,12.60
2020,03,29,12,43,12.60
2020,03,29,12,44,12.60
2020,03,29,12,45,12.70
2020,03,29,12,46,12.80
2020,03,29,12,47,12.80
2020,03,29,12,48,12.90
2020,03,29,12,49,12.90
2020,03,29,12,50,12.80
2020,03,29,12,51,12.70
2020,03,29,12,52,12.70
2020,03,29,12,53,12.70
2020,03,29,12,54,12.70
2020,03,29,12,55,12.60
2020,03,29,12,56,12.60
2020,03,29,12,57,12.60
2020,03,29,12,58,12.50
2020,03,29,12,59,12.50
2020,03,29,13,00,12.40
2020,03,29,13,01,12.40
2020,03,29,13,02,12.30
2020,03,29,13,03,12.20
2020,03,29,13,04,12.20
2020,03,29,13,05,12.20
2020,03,29,13,06,12.10
2020,03,29,13,07,12.10
2020,03,29,13,08,12.10
2020,03,29,13,09,12.00
2020,03,29,13,10,12.00
2020,03,29,13,11,12.00
2020,03,29,13,12,12.10
2020,03,29,13,13,12.10
2020,03,29,13,14,12.10
2020,03,29,13,15,12.10
2020,03,29,13,16,12.10
2020,03,29,13,17,12.10
2020,03,29,13,18,12.20
2020,03,29,13,19,12.10
2020,03,29,13,20,12.00
2020,03,29,13,21,11.90
2020,03,29,13,22,11.90
2020,03,29,13,23,11.90
2020,03,29,13,24,12.00
2020,03,29,13,25,12.00
2020,03,29,13,26,12.20
2020,03,29,13,27,12.30
2020,03,29,13,28,12.30
2020,03,29,13,29,12.30
2020,03,29,13,30,12.30
2020,03,29,13,31,12.20
2020,03,29,13,32,12.20
2020,03,29,13,33,12.10
2020,03,29,13,34,12.10
2020,03,29,13,35,12.10
2020,03,29,13,36,12.10
2020,03,29,13,37,12.20
2020,03,29,13,38,12.30
2020,03,29,13,39,12.30
2020,03,29,13,40,12.30
2020,03,29,13,41,12.30
2020,03,29,13,42,12.30
2020,03,29,13,43,12.30
2020,03,29,13,44,12.30
2020,03,29,13,45,12.40
2020,03,29,13,46,12.40
2020,03,29,13,47,12.40
2020,03,29,13,48,12.40
2020,03,29,13,49,12.40
2020,03,29,13,50,12.50
2020,03,29,13,51,12.60
2020,03,29,13,52,12.60
2020,03,29,13,53,12.50
2020,03,29,13,54,12.40
2020,03,29,13,55,12.20
2020,03,29,13,56,12.10
2020,03,29,13,57,12.10
2020,03,29,13,58,12.10
2020,03,29,13,59,12.00
2020,03,29,14,00,12.00
2020,03,29,14,01,11.90
2020,03,29,14,02,11.90
2020,03,29,14,03,11.90
2020,03,29,14,04,11.90
2020,03,29,14,05,11.90
2020,03,29,14,06,11.90
2020,03,29,14,07,11.90
2020,03,29,14,08,11.90
2020,03,29,14,09,11.90
2020,03,29,14,10,11.90
2020,03,29,14,11,11.90
2020,03,29,14,12,12.00
2020,03,29,14,13,12.00
2020,03,29,14,14,12.00
2020,03,29,14,15,12.00
2020,03,29,14,16,11.90
2020,03,29,14,17,11.90
2020,03,29,14,18,11.90
2020,03,29,14,19,11.90
2020,03,29,14,20,11.90
2020,03,29,14,21,11.90
2020,03,29,14,22,11.90
2020,03,29,14,23,11.90
2020,03,29,14,24,11.90
2020,03,29,14,25,12.00
2020,03,29,14,26,12.00
2020,03,29,14,27,12.00
2020,03,29,14,28,12.10
2020,03,29,14,29,12.10
2020,03,29,14,30,12.20
2020,03,29,14,31,12.20
2020,03,29,14,32,12.10
2020,03,29,14,33,12.10
2020,03,29,14,34,12.10
2020,03,29,14,35,12.00
2020,03,29,14,36,12.00
2020,03,29,14,37,12.00
2020,03,29,14,38,12.00
2020,03,29,14,39,12.00
2020,03,29,14,40,12.00
2020,03,29,14,41,12.00
2020,03,29,14,42,11.90
2020,03,29,14,43,11.90
2020,03,29,14,44,11.80
2020,03,29,14,45,11.80
2020,03,29,14,46,11.80
2020,03,29,14,47,11.80
2020,03,29,14,48,11.80
2020,03,29,14,49,11.80
2020,03,29,14,50,11.80
2020,03,29,14,51,11.80
2020,03,29,14,52,11.80
2020,03,29,14,53,11.80
2020,03,29,14,54,11.70
2020,03,29,14,55,11.70
2020,03,29,14,56,11.70
2020,03,29,14,57,11.60
2020,03,29,14,58,11.60
2020,03,29,14,59,11.60
2020,03,29,15,00,11.70
2020,03,29,15,01,11.80
2020,03,29,15,02,11.80
2020,03,29,15,03,11.70
2020,03,29,15,04,11.70
2020,03,29,15,05,11.70
2020,03,29,15,06,11.70
2020,03,29,15,07,11.70
2020,03,29,15,08,11.70
2020,03,29,15,09,11.60
2020,03,29,15,10,11.60
2020,03,29,15,11,11.50
2020,03,29,15,12,11.60
2020,03,29,15,13,11.60
2020,03,29,15,14,11.70
2020,03,29,15,15,11.70
2020,03,29,15,16,11.70
2020,03,29,15,17,11.70
2020,03,29,15,18,11.80
2020,03,29,15,19,11.90
2020,03,29,15,20,11.90
2020,03,29,15,21,12.00
2020,03,29,15,22,12.00
2020,03,29,15,23,12.00
2020,03,29,15,24,12.00
2020,03,29,15,25,12.10
2020,03,29,15,26,12.10
2020,03,29,15,27,12.20
2020,03,29,15,28,12.30
2020,03,29,15,29,12.40
2020,03,29,15,30,12.50
2020,03,29,15,31,12.60
2020,03,29,15,32,12.60
2020,03,29,15,33,12.50
2020,03,29,15,34,12.40
2020,03,29,15,35,12.30
2020,03,29,15,36,12.20
2020,03,29,15,37,12.10
2020,03,29,15,38,12.00
2020,03,29,15,39,11.90
2020,03,29,15,40,11.80
2020,03,29,15,41,11.80
2020,03,29,15,42,11.60
2020,03,29,15,43,11.50
2020,03,29,15,44,11.40
2020,03,29,15,45,11.40
2020,03,29,15,46,11.30
2020,03,29,15,47,11.30
2020,03,29,15,48,11.30
2020,03,29,15,49,11.20
2020,03,29,15,50,11.20
2020,03,29,15,51,11.20
2020,03,29,15,52,11.20
2020,03,29,15,53,11.20
2020,03,29,15,54,11.20
2020,03,29,15,55,11.20
2020,03,29,15,56,11.10
2020,03,29,15,57,11.10
2020,03,29,15,58,11.10
2020,03,29,15,59,11.10
2020,03,29,16,00,11.00
2020,03,29,16,01,11.00
2020,03,29,16,02,11.00
2020,03,29,16,03,11.00
2020,03,29,16,04,11.00
2020,03,29,16,05,11.00
2020,03,29,16,06,11.00
2020,03,29,16,07,11.00
2020,03,29,16,08,11.00
2020,03,29,16,09,11.00
2020,03,29,16,10,11.00
2020,03,29,16,11,11.10
2020,03,29,16,12,11.10
2020,03,29,16,13,11.00
2020,03,29,16,14,11.00
2020,03,29,16,15,11.00
2020,03,29,16,16,11.00
2020,03,29,16,17,11.00
2020,03,29,16,18,10.90
2020,03,29,16,19,10.90
2020,03,29,16,20,10.90
2020,03,29,16,21,10.80
2020,03,29,16,22,10.80
2020,03,29,16,23,10.80
2020,03,29,16,24,10.80
2020,03,29,16,25,10.80
2020,03,29,16,26,10.80
2020,03,29,16,27,10.80
2020,03,29,16,28,10.80
2020,03,29,16,29,10.80
2020,03,29,16,30,10.80
2020,03,29,16,31,10.80
2020,03,29,16,32,10.80
2020,03,29,16,33,10.80
2020,03,29,16,34,10.80
2020,03,29,16,35,10.80
2020,03,29,16,36,10.80
2020,03,29,16,37,10.80
2020,03,29,16,38,10.80
2020,03,29,16,39,10.80
2020,03,29,16,40,10.80
2020,03,29,16,41,10.90
2020,03,29,16,42,10.90
2020,03,29,16,43,10.90
2020,03,29,16,44,10.90
2020,03,29,16,45,10.90
2020,03,29,16,46,11.00
2020,03,29,16,47,11.00
2020,03,29,16,48,11.00
2020,03,29,16,49,11.00
2020,03,29,16,50,11.10
2020,03,29,16,51,11.10
2020,03,29,16,52,11.10
2020,03,29,16,53,11.20
2020,03,29,16,54,11.20
2020,03,29,16,55,11.20
2020,03,29,16,56,11.30
2020,03,29,16,57,11.30
2020,03,29,16,58,11.30
2020,03,29,16,59,11.30
2020,03,29,17,00,11.30
2020,03,29,17,01,11.30
2020,03,29,17,02,11.40
2020,03,29,17,03,11.40
2020,03,29,17,04,11.40
2020,03,29,17,05,11.40
2020,03,29,17,06,11.30
2020,03,29,17,07,11.30
2020,03,29,17,08,11.30
2020,03,29,17,09,11.20
2020,03,29,17,10,11.10
2020,03,29,17,11,11.10
2020,03,29,17,12,11.10
2020,03,29,17,13,11.00
2020,03,29,17,14,11.00
2020,03,29,17,15,11.00
2020,03,29,17,16,10.90
2020,03,29,17,17,10.90
2020,03,29,17,18,10.90
2020,03,29,17,19,10.90
2020,03,29,17,20,10.90
2020,03,29,17,21,10.90
2020,03,29,17,22,10.80
2020,03,29,17,23,10.80
2020,03,29,17,24,10.80
2020,03,29,17,25,10.80
2020,03,29,17,26,10.70
2020,03,29,17,27,10.70
2020,03,29,17,28,10.70
2020,03,29,17,29,10.70
2020,03,29,17,30,10.70
2020,03,29,17,31,10.70
2020,03,29,17,32,10.70
2020,03,29,17,33,10.70
2020,03,29,17,34,10.70
2020,03,29,17,35,10.70
2020,03,29,17,36,10.70
2020,03,29,17,37,10.80
2020,03,29,17,38,10.80
2020,03,29,17,39,10.90
2020,03,29,17,40,10.90
2020,03,29,17,41,11.00
2020,03,29,17,42,11.00
2020,03,29,17,43,11.10
2020,03,29,17,44,11.10
2020,03,29,17,45,11.20
2020,03,29,17,46,11.20
2020,03,29,17,47,11.30
2020,03,29,17,48,11.30
2020,03,29,17,49,11.30
2020,03,29,17,50,11.40
2020,03,29,17,51,11.40